GFSWCAN_850_dewp_111.txt.gz
Dewpoint
-2 -2 -3 -3 -3 -4 -5 -5 -5 -5 -4 -3 -3 -3 -4 -5 -6 -6 -7 -9 -9 -4 -3 -6 -6 -6 -6 -7 -5 -5 -3 -4 -3 -1 -1 -0 -0 0 0 -1 -0 -0 -0 -0 0 -0 0 -6 -4 -2 -4 -6 -7 -8
-2 -2 -2 -4 -7 -10 -11 -8 -4 -3 -3 -3 -4 -4 -5 -6 -6 -7 -7 -7 -8 -6 -5 -7 -9 -9 -13 -10 -4 -3 -5 -3 -3 -2 -2 -1 -0 -1 -1 -0 -3 -0 -2 -2 -3 -4 -6 -5 -5 -5 -6 -7 -8 -8
-2 -2 -3 -4 -5 -7 -10 -9 -4 -3 -3 -4 -5 -6 -8 -9 -8 -7 -7 -7 -8 -6 -5 -7 -7 -9 -5 -4 -5 -5 -3 -3 -3 -3 -2 -1 -1 -0 -1 -2 -2 -3 -4 -5 -5 -6 -6 -6 -6 -7 -7 -8 -8 -9
-3 -3 -5 -6 -8 -9 -6 -4 -4 -4 -5 -5 -6 -8 -10 -11 -11 -8 -8 -8 -9 -6 -4 -4 -4 -5 -6 -7 -7 -6 -4 -4 -3 -2 -2 -1 -1 -1 -2 -4 -4 -4 -4 -5 -5 -6 -7 -6 -7 -7 -8 -8 -8 -9
-2 -3 -4 -6 -7 -7 -7 -6 -5 -5 -5 -6 -6 -6 -8 -10 -9 -8 -9 -8 -10 -10 -3 -4 -4 -4 -5 -6 -6 -4 -4 -4 -4 -4 -2 -1 -1 -2 -4 -5 -4 -3 -4 -5 -4 -7 -7 -7 -7 -7 -8 -8 -8 -9
-4 -4 -4 -7 -8 -7 -6 -7 -8 -7 -6 -6 -6 -6 -7 -8 -9 -10 -9 -8 -6 -6 -6 -3 -4 -4 -4 -4 -3 -3 -4 -4 -4 -3 -3 -1 -1 -2 -3 -3 -4 -5 -4 -5 -6 -7 -7 -8 -7 -8 -8 -8 -9 -9
-4 -4 -4 -5 -7 -7 -6 -7 -7 -6 -6 -6 -6 -6 -6 -7 -10 -9 -6 -6 -8 -7 -5 -4 -3 -4 -4 -4 -3 -3 -3 -4 -4 -3 -3 -0 -2 -4 -5 -3 -4 -5 -5 -6 -7 -7 -7 -8 -8 -8 -8 -8 -9 -9
-4 -5 -6 -6 -7 -7 -8 -9 -7 -6 -6 -7 -7 -7 -7 -7 -6 -5 -6 -8 -9 -9 -6 -4 -3 -3 -4 -4 -3 -3 -4 -3 -3 -4 -3 -1 -3 -5 -3 -6 -6 -6 -6 -6 -6 -6 -8 -8 -8 -8 -8 -9 -9 -11
-4 -4 -4 -4 -8 -8 -7 -9 -10 -9 -9 -8 -5 -5 -6 -6 -5 -4 -6 -7 -9 -8 -5 -5 -4 -4 -3 -3 -3 -2 -3 -2 -3 -2 -2 -2 -2 -2 -5 -5 -6 -6 -7 -6 -6 -8 -8 -8 -9 -8 -9 -9 -10 -12
-5 -5 -4 -4 -4 -4 -6 -8 -10 -10 -5 -4 -6 -6 -4 -3 -4 -5 -6 -6 -7 -6 -5 -4 -4 -2 -2 -3 -2 -2 -3 -2 -2 -1 -2 -1 -2 -4 -5 -5 -6 -7 -6 -6 -7 -7 -8 -8 -9 -9 -9 -9 -10 -12
-4 -5 -4 -4 -4 -6 -7 -7 -7 -5 -5 -6 -4 -3 -3 -4 -5 -5 -5 -5 -5 -5 -5 -5 -5 -2 -2 -3 -3 -2 -2 -2 -1 -1 -1 -1 -2 -5 -4 -5 -6 -6 -5 -7 -8 -7 -8 -8 -9 -9 -10 -10 -11 -16
-5 -4 -5 -5 -7 -10 -7 -5 -5 -6 -5 -3 -4 -4 -3 -4 -5 -5 -4 -5 -5 -4 -5 -5 -5 -4 -1 -1 -2 -3 -3 -3 -2 -2 0 -1 -4 -5 -5 -5 -5 -6 -7 -8 -8 -9 -9 -9 -9 -10 -10 -11 -13 -17
-5 -5 -5 -5 -7 -7 -5 -5 -6 -6 -4 -4 -4 -4 -5 -4 -5 -7 -5 -4 -4 -4 -4 -4 -3 -3 -2 -4 -4 -4 -4 -4 -3 -2 -2 -3 -4 -5 -5 -5 -5 -7 -7 -7 -7 -8 -9 -9 -9 -10 -11 -12 -17 -22
-5 -5 -5 -5 -8 -8 -6 -6 -4 -5 -4 -4 -5 -4 -6 -4 -5 -6 -5 -6 -5 -4 -4 -4 -3 -3 -4 -4 -6 -5 -5 -3 -2 -3 -2 -4 -4 -5 -4 -4 -5 -5 -7 -6 -7 -8 -8 -9 -10 -11 -13 -18 -22 -23
-4 -4 -5 -5 -8 -10 -8 -7 -6 -4 -5 -4 -4 -4 -4 -4 -4 -4 -2 -2 -2 -4 -4 -3 -3 -5 -4 -4 -4 -5 -3 -2 -3 -3 -5 -5 -5 -5 -5 -5 -4 -5 -6 -5 -6 -7 -8 -9 -10 -13 -18 -22 -22 -23
-5 -4 -4 -4 -5 -8 -9 -9 -8 -5 -5 -4 -3 -3 -3 -3 -2 -1 -2 -3 -4 -4 -4 -4 -3 -4 -3 -5 -4 -5 -4 -3 -4 -6 -4 -5 -5 -5 -5 -5 -5 -5 -6 -6 -7 -8 -9 -10 -12 -16 -20 -21 -22 -24
-8 -4 -4 -5 -7 -8 -9 -9 -7 -7 -5 -4 -4 -3 -2 -2 -2 -2 -3 -3 -4 -3 -3 -4 -5 -4 -4 -3 -3 -4 -3 -4 -5 -4 -5 -6 -6 -6 -6 -6 -6 -7 -8 -8 -8 -9 -10 -11 -15 -19 -19 -20 -23 -22
-5 -5 -5 -7 -9 -9 -9 -9 -7 -5 -5 -4 -4 -3 -3 -2 -2 -3 -2 -3 -4 -5 -3 -3 -4 -3 -3 -3 -3 -6 -5 -5 -4 -5 -6 -6 -6 -7 -7 -7 -8 -8 -8 -9 -9 -10 -12 -15 -19 -19 -19 -22 -21 -17
-5 -5 -7 -10 -10 -11 -12 -10 -6 -6 -5 -4 -4 -4 -3 -3 -4 -4 -4 -4 -4 -4 -2 -2 -3 -4 -4 -6 -5 -3 -4 -4 -5 -5 -6 -6 -6 -7 -8 -8 -8 -8 -9 -9 -10 -11 -13 -17 -18 -17 -19 -21 -17 -16
-6 -5 -8 -9 -12 -13 -11 -9 -6 -6 -5 -4 -5 -4 -4 -4 -4 -5 -5 -4 -5 -5 -4 -4 -5 -5 -5 -3 -2 -3 -4 -4 -4 -6 -6 -6 -6 -7 -7 -8 -8 -9 -9 -9 -10 -12 -15 -18 -16 -16 -17 -16 -15 -14
-5 -5 -6 -10 -10 -8 -7 -6 -6 -6 -5 -5 -6 -6 -5 -5 -5 -5 -5 -5 -5 -5 -5 -5 -5 -5 -4 -4 -3 -3 -5 -5 -5 -6 -7 -7 -7 -7 -7 -8 -8 -9 -9 -10 -10 -12 -16 -16 -15 -14 -13 -14 -13 -13
-5 -5 -6 -8 -10 -8 -6 -6 -5 -5 -6 -5 -5 -6 -6 -6 -6 -5 -5 -5 -5 -5 -5 -5 -5 -5 -4 -4 -3 -3 -4 -5 -5 -6 -7 -8 -7 -7 -7 -7 -8 -9 -9 -10 -11 -13 -16 -14 -12 -13 -13 -13 -13 -13
-5 -6 -8 -9 -10 -9 -6 -6 -5 -5 -6 -4 -5 -7 -6 -5 -5 -5 -5 -5 -5 -6 -6 -6 -5 -5 -5 -4 -4 -4 -5 -5 -5 -6 -7 -8 -8 -8 -7 -7 -8 -8 -9 -10 -12 -14 -15 -13 -13 -13 -12 -12 -12 -13
-7 -8 -10 -10 -9 -8 -6 -5 -5 -5 -6 -6 -6 -7 -7 -6 -5 -5 -6 -6 -6 -7 -6 -6 -6 -5 -4 -4 -4 -4 -5 -6 -6 -6 -7 -8 -9 -8 -8 -8 -8 -9 -10 -11 -12 -15 -13 -12 -12 -11 -11 -12 -13 -14
-8 -8 -8 -9 -7 -8 -7 -9 -7 -7 -8 -7 -7 -9 -7 -5 -7 -7 -6 -7 -7 -7 -7 -6 -5 -5 -4 -5 -5 -5 -5 -6 -6 -8 -9 -9 -9 -9 -9 -9 -10 -10 -11 -12 -13 -14 -11 -11 -11 -11 -12 -13 -14 -18
-12 -9 -9 -9 -8 -8 -8 -7 -7 -9 -11 -10 -9 -7 -5 -7 -7 -7 -8 -7 -6 -6 -5 -6 -6 -5 -5 -5 -5 -5 -5 -6 -8 -8 -9 -9 -10 -10 -10 -10 -11 -11 -11 -12 -13 -12 -11 -11 -11 -12 -12 -14 -17 -22
-10 -10 -7 -7 -6 -6 -8 -7 -7 -9 -9 -9 -10 -8 -9 -7 -7 -9 -8 -7 -7 -6 -6 -6 -6 -6 -6 -6 -7 -6 -6 -7 -7 -7 -9 -10 -10 -11 -11 -11 -11 -12 -12 -12 -11 -11 -11 -11 -12 -12 -14 -16 -22 -28
-7 -6 -8 -6 -6 -6 -9 -12 -12 -9 -9 -6 -7 -8 -8 -9 -9 -8 -7 -7 -7 -7 -6 -6 -6 -7 -7 -7 -7 -7 -7 -7 -8 -9 -10 -11 -11 -10 -10 -11 -11 -10 -10 -10 -11 -11 -11 -12 -13 -15 -17 -24 -28 -27
-7 -6 -6 -7 -6 -6 -6 -7 -8 -7 -7 -6 -8 -9 -9 -8 -8 -8 -8 -8 -8 -7 -7 -6 -6 -7 -7 -7 -7 -7 -7 -7 -8 -9 -10 -10 -10 -10 -10 -10 -10 -10 -10 -11 -12 -13 -16 -17 -20 -24 -29 -28 -27 -27
-8 -7 -6 -8 -10 -7 -6 -5 -6 -6 -6 -6 -6 -7 -7 -8 -8 -8 -8 -8 -8 -8 -8 -7 -8 -8 -7 -7 -8 -8 -8 -8 -8 -8 -9 -10 -10 -10 -10 -11 -11 -12 -14 -16 -19 -23 -26 -28 -30 -28 -28 -28 -27 -24
-8 -7 -7 -8 -9 -8 -8 -8 -7 -8 -8 -7 -7 -7 -7 -7 -7 -7 -8 -8 -9 -9 -8 -9 -9 -9 -8 -8 -8 -8 -9 -9 -9 -9 -9 -9 -9 -10 -10 -11 -12 -15 -19 -28 -31 -32 -30 -29 -28 -29 -28 -24 -25 -27
-8 -8 -9 -12 -10 -10 -10 -9 -9 -9 -9 -9 -9 -9 -9 -9 -9 -9 -10 -10 -10 -9 -9 -9 -9 -8 -8 -8 -8 -8 -9 -9 -9 -10 -10 -10 -10 -11 -11 -12 -14 -24 -31 -33 -30 -29 -28 -29 -29 -24 -24 -26 -29 -30
-9 -9 -10 -10 -12 -12 -11 -10 -11 -11 -11 -11 -11 -11 -11 -10 -10 -11 -11 -11 -10 -10 -9 -9 -9 -9 -9 -9 -9 -9 -9 -9 -10 -10 -10 -10 -11 -11 -12 -17 -29 -32 -31 -29 -28 -29 -29 -25 -24 -26 -28 -30 -30 -29

GFSWCAN_850_dewp_114.txt.gz
Dewpoint
-2 -2 -2 -2 -1 -2 -1 -1 -1 -1 -1 -1 -1 -1 -2 -3 -5 -8 -9 -9 -9 -2 -2 -4 -5 -5 -5 -8 -5 -4 -3 -3 -3 -1 -1 -1 0 -0 -1 -2 -0 1 2 2 1 2 1 -5 -4 -1 -3 -6 -6 -5
-3 -3 -2 -2 -2 -1 -1 -1 -1 -1 -0 -1 -1 -4 -5 -5 -6 -9 -10 -10 -9 -4 -3 -6 -7 -9 -8 -7 -4 -3 -4 -3 -3 -2 -2 -2 -0 -1 -1 0 -3 1 -1 -0 -2 -1 -6 -5 -4 -5 -5 -6 -6 -6
-3 -3 -3 -3 -2 -2 -2 -2 -1 -1 -1 -2 -4 -5 -6 -6 -7 -8 -8 -7 -8 -5 -5 -7 -4 -6 -6 -6 -4 -4 -3 -2 -2 -2 -2 -2 -1 -2 -1 -2 -2 -2 -3 -2 -3 -5 -6 -5 -5 -5 -6 -6 -6 -7
-4 -4 -4 -3 -2 -2 -2 -3 -4 -5 -5 -5 -5 -6 -7 -7 -7 -9 -8 -8 -8 -6 -4 -3 -4 -5 -7 -7 -8 -5 -3 -2 -1 -1 -2 -2 -1 -2 -0 -3 -3 -2 -3 -4 -4 -6 -6 -6 -5 -6 -6 -7 -8 -8
-8 -9 -7 -4 -3 -3 -4 -5 -5 -6 -7 -9 -10 -11 -10 -7 -7 -8 -9 -10 -10 -7 -5 -4 -4 -5 -5 -4 -4 -3 -3 -2 -3 -2 -2 -1 -2 -2 -2 -4 -2 -4 -3 -3 -1 -6 -5 -6 -6 -6 -7 -7 -8 -8
-5 -7 -7 -6 -4 -4 -5 -5 -5 -6 -7 -9 -9 -8 -7 -7 -8 -9 -9 -7 -8 -6 -6 -3 -4 -3 -3 -3 -3 -3 -3 -3 -3 -3 -2 -0 -1 -1 -0 -1 -3 -3 -4 -4 -5 -5 -5 -6 -6 -6 -7 -7 -8 -8
-7 -7 -7 -7 -8 -7 -6 -6 -6 -5 -6 -7 -7 -8 -7 -8 -10 -12 -4 -6 -8 -9 -4 -5 -4 -3 -2 -3 -2 -3 -3 -3 -4 -3 -2 -2 -2 -3 -0 -0 -4 -4 -5 -4 -6 -6 -6 -6 -6 -7 -7 -8 -8 -9
-6 -7 -7 -6 -8 -6 -6 -6 -6 -6 -6 -7 -8 -9 -10 -12 -10 -6 -7 -8 -9 -8 -4 -4 -4 -4 -3 -4 -4 -2 -3 -3 -4 -4 -2 -3 -2 -3 -0 -4 -4 -5 -5 -5 -6 -6 -6 -6 -7 -7 -7 -9 -10 -11
-6 -7 -8 -8 -8 -6 -6 -6 -7 -7 -6 -6 -7 -8 -9 -9 -5 -5 -10 -12 -13 -8 -3 -4 -4 -2 -3 -3 -2 -2 -3 -3 -3 -4 -3 -2 -3 -1 -1 -4 -4 -5 -5 -5 -6 -7 -7 -7 -7 -8 -9 -9 -11 -12
-5 -7 -6 -7 -9 -10 -8 -8 -7 -5 -5 -6 -7 -7 -5 -5 -6 -9 -11 -10 -8 -3 -3 -3 -4 -2 -3 -2 -2 -3 -3 -3 -3 -2 -2 -2 -2 -3 -4 -4 -5 -5 -5 -6 -7 -7 -7 -7 -8 -8 -9 -10 -12 -14
-4 -4 -4 -6 -7 -10 -11 -9 -7 -5 -7 -8 -4 -3 -4 -5 -6 -4 -3 -3 -5 -4 -4 -4 -4 -2 -2 -2 -2 -1 -2 -2 -3 -1 -2 -2 -1 -3 -4 -5 -5 -5 -5 -6 -6 -7 -7 -8 -8 -8 -9 -10 -12 -14
-4 -4 -7 -8 -8 -7 -8 -5 -5 -8 -7 -5 -5 -4 -4 -3 -4 -4 -4 -4 -4 -4 -4 -3 -3 -3 -0 -1 -2 -2 -3 -2 -1 -1 -0 -2 -1 -4 -4 -5 -5 -5 -6 -7 -7 -7 -7 -8 -8 -9 -9 -10 -14 -18
-5 -6 -9 -8 -6 -6 -7 -6 -6 -5 -5 -5 -4 -5 -4 -5 -3 -4 -3 -2 -2 -3 -3 -3 -1 -2 -2 -3 -2 -3 -1 -2 -3 -1 -2 -1 -4 -4 -4 -4 -5 -6 -6 -7 -7 -8 -8 -8 -9 -9 -10 -12 -17 -19
-5 -6 -8 -7 -6 -6 -6 -6 -5 -5 -5 -4 -4 -3 -3 -3 -3 -3 -2 -2 -3 -2 -3 -2 -2 -2 -2 -2 -2 -2 -2 -2 -1 -2 -1 -1 -3 -4 -4 -4 -5 -6 -7 -7 -8 -9 -9 -10 -10 -10 -11 -14 -18 -23
-5 -6 -8 -9 -7 -7 -6 -5 -6 -6 -5 -3 -4 -2 -3 -3 -2 -2 -2 -2 -3 -2 -2 -2 -2 -3 -3 -2 -3 -3 -2 -1 -2 -2 -0 -2 -3 -4 -4 -5 -5 -7 -7 -7 -8 -8 -9 -9 -10 -11 -14 -19 -23 -24
-5 -5 -5 -9 -9 -10 -8 -7 -7 -6 -5 -3 -3 -2 -2 -1 -1 -2 -2 -2 -3 -3 -2 -3 -3 -2 -2 -3 -3 -2 -3 -3 -1 -1 -2 -5 -5 -5 -4 -4 -5 -5 -6 -6 -6 -8 -9 -9 -11 -14 -19 -22 -23 -24
-6 -4 -4 -7 -8 -10 -11 -8 -8 -6 -4 -3 -2 -3 -2 -2 -1 -2 -2 -3 -4 -2 -1 -3 -2 -1 -3 -2 -1 -3 -1 0 -1 -3 -4 -5 -5 -5 -5 -5 -5 -5 -5 -5 -6 -8 -9 -10 -12 -17 -21 -21 -23 -26
-5 -5 -7 -9 -9 -10 -10 -9 -7 -5 -4 -3 -3 -3 -3 -2 -2 -2 -3 -4 -4 -2 -2 -2 -3 -2 -2 -1 -2 -1 -2 -3 -4 -4 -5 -6 -6 -5 -5 -5 -5 -6 -7 -7 -7 -8 -9 -11 -14 -20 -20 -21 -24 -23
-6 -8 -10 -11 -12 -12 -11 -8 -6 -5 -4 -4 -3 -3 -3 -3 -3 -3 -4 -4 -5 -4 -2 -2 -2 -3 -2 -2 0 -2 -4 -4 -4 -5 -6 -6 -6 -6 -6 -6 -7 -8 -8 -8 -9 -9 -10 -13 -17 -19 -19 -21 -18 -18
-7 -10 -10 -12 -14 -14 -10 -7 -5 -6 -5 -4 -3 -3 -3 -3 -5 -4 -5 -4 -5 -3 -3 -3 -3 -1 -1 -2 -3 -3 -4 -4 -4 -5 -6 -6 -6 -7 -8 -8 -8 -8 -9 -9 -10 -11 -13 -17 -19 -18 -18 -19 -13 -14
-7 -9 -10 -12 -11 -8 -6 -6 -5 -4 -5 -4 -5 -4 -4 -5 -4 -4 -5 -5 -5 -4 -4 -3 -4 -5 -4 -4 -4 -3 -5 -5 -4 -4 -5 -6 -6 -7 -7 -8 -8 -8 -9 -9 -10 -11 -14 -16 -18 -17 -19 -17 -12 -12
-6 -7 -9 -10 -11 -7 -5 -6 -5 -5 -4 -5 -5 -5 -5 -5 -4 -4 -5 -4 -5 -3 -4 -4 -5 -5 -5 -4 -4 -4 -4 -5 -5 -5 -6 -7 -7 -7 -7 -7 -8 -9 -9 -9 -10 -11 -13 -14 -16 -16 -14 -13 -14 -13
-7 -8 -9 -11 -11 -8 -6 -6 -5 -5 -7 -5 -6 -6 -5 -4 -5 -5 -4 -4 -3 -6 -6 -5 -5 -5 -5 -5 -4 -4 -5 -5 -5 -6 -6 -7 -7 -7 -7 -7 -8 -8 -9 -9 -10 -11 -13 -16 -14 -13 -13 -13 -13 -13
-8 -9 -10 -9 -8 -6 -6 -5 -5 -6 -7 -6 -6 -5 -5 -5 -5 -5 -4 -5 -5 -6 -6 -6 -6 -5 -5 -4 -4 -4 -5 -5 -6 -6 -7 -7 -8 -8 -8 -8 -8 -8 -9 -9 -10 -12 -15 -15 -13 -13 -13 -12 -12 -13
-8 -8 -8 -8 -8 -7 -6 -5 -5 -6 -6 -6 -5 -5 -5 -5 -5 -5 -5 -5 -6 -6 -7 -6 -5 -4 -4 -4 -5 -5 -5 -5 -6 -6 -7 -8 -9 -9 -8 -8 -8 -8 -9 -9 -11 -13 -15 -13 -12 -12 -11 -12 -13 -14
-8 -9 -8 -8 -8 -8 -7 -5 -5 -5 -6 -5 -5 -6 -5 -5 -5 -6 -7 -5 -6 -6 -6 -6 -6 -5 -5 -5 -5 -6 -5 -6 -6 -8 -8 -9 -9 -9 -9 -9 -9 -9 -10 -11 -12 -14 -14 -12 -11 -11 -12 -12 -13 -16
-8 -8 -7 -8 -6 -7 -7 -6 -6 -6 -5 -5 -5 -5 -5 -5 -5 -6 -8 -8 -7 -7 -6 -6 -6 -6 -6 -5 -6 -7 -7 -7 -7 -7 -8 -10 -10 -10 -10 -10 -10 -11 -11 -12 -13 -14 -12 -11 -11 -12 -12 -13 -16 -21
-7 -7 -6 -6 -6 -5 -6 -6 -5 -5 -5 -5 -5 -5 -5 -5 -5 -8 -7 -7 -7 -7 -7 -6 -6 -6 -6 -7 -7 -7 -7 -7 -7 -8 -10 -10 -11 -11 -11 -11 -11 -11 -12 -12 -12 -11 -11 -11 -11 -12 -13 -16 -21 -27
-7 -7 -6 -6 -6 -5 -5 -5 -5 -6 -7 -5 -4 -5 -5 -8 -8 -8 -8 -8 -8 -8 -7 -6 -6 -7 -7 -7 -7 -7 -7 -7 -8 -9 -10 -10 -10 -10 -11 -11 -11 -11 -10 -11 -11 -11 -11 -12 -12 -14 -18 -25 -28 -27
-7 -7 -6 -7 -6 -5 -5 -5 -5 -6 -7 -7 -7 -7 -7 -7 -7 -7 -8 -8 -8 -8 -8 -8 -8 -7 -7 -7 -7 -8 -8 -8 -8 -9 -9 -10 -10 -10 -10 -10 -10 -10 -11 -11 -11 -13 -14 -16 -19 -25 -28 -27 -28 -25
-8 -8 -7 -7 -6 -7 -8 -7 -7 -7 -7 -7 -7 -7 -7 -7 -7 -7 -7 -8 -8 -8 -8 -8 -8 -8 -8 -8 -8 -8 -8 -9 -9 -9 -9 -9 -10 -10 -10 -11 -11 -12 -14 -15 -18 -21 -25 -28 -28 -28 -28 -26 -24 -27
-8 -7 -7 -7 -8 -9 -9 -9 -9 -9 -9 -9 -8 -9 -9 -9 -8 -9 -9 -9 -9 -9 -9 -8 -8 -9 -8 -8 -8 -8 -9 -9 -9 -9 -10 -9 -10 -10 -11 -11 -14 -17 -24 -28 -30 -30 -28 -28 -29 -26 -24 -26 -29 -30
-9 -9 -9 -9 -9 -9 -10 -10 -9 -9 -10 -10 -10 -12 -11 -10 -9 -10 -11 -11 -10 -10 -10 -9 -9 -9 -9 -9 -9 -9 -9 -9 -9 -10 -10 -10 -10 -11 -11 -13 -21 -30 -32 -31 -29 -28 -29 -27 -24 -26 -29 -30 -30 -30

GFSWCAN_850_dewp_117.txt.gz
Dewpoint
-1 -2 0 2 -0 -0 1 1 -0 -0 -1 -1 -0 2 2 1 1 1 1 1 1 0 -1 -1 -3 -5 -7 -7 -4 -4 -3 -3 -3 -1 -0 -1 -0 0 0 -1 -0 1 3 3 0 3 4 -5 -4 -1 -2 -4 -4 -3
-1 -1 -1 0 1 1 1 1 1 1 1 1 1 1 1 0 -0 1 0 -0 -1 -2 -2 -3 -4 -5 -5 -7 -7 -4 -4 -4 -4 -3 -3 -1 -0 -0 -0 0 -3 1 -0 2 -0 -0 -4 -4 -2 -4 -4 -4 -4 -4
-1 -1 -1 -1 -1 -1 -1 -1 -1 -1 -1 -1 -0 -0 -0 0 0 -1 -1 -2 -3 -3 -4 -5 -3 -4 -6 -4 -3 -5 -4 -4 -1 -1 -1 -2 -0 -2 0 -2 -1 -2 -3 -1 -2 -4 -5 -4 -4 -4 -4 -4 -5 -5
-2 -1 -1 -1 -1 -1 -1 -1 -1 -1 -1 -0 -1 -1 -1 -2 -2 -4 -4 -4 -6 -5 -3 -3 -3 -4 -4 -4 -3 -2 -2 -1 -2 -2 -1 -1 -1 -3 0 -1 -3 -1 -3 -3 -3 -5 -5 -4 -5 -4 -5 -5 -6 -6
-3 -2 -2 -2 -2 -1 -1 -2 -1 -1 -1 -2 -3 -4 -5 -5 -6 -7 -5 -5 -6 -7 -5 -4 -3 -4 -4 -3 -3 -2 -1 -1 -2 -2 -1 -1 -2 -1 -2 -2 -1 -3 0 -1 2 -5 -4 -5 -5 -5 -5 -6 -6 -7
-3 -3 -2 -3 -4 -5 -5 -7 -7 -7 -7 -7 -6 -6 -7 -7 -8 -8 -6 -5 -6 -7 -7 -3 -5 -4 -4 -4 -4 -3 -2 -3 -4 -4 -2 -2 -2 -2 -1 0 -2 -2 -2 -3 -3 -4 -4 -5 -5 -5 -5 -6 -7 -8
-5 -5 -5 -5 -5 -6 -7 -8 -9 -10 -10 -7 -6 -7 -8 -8 -7 -6 -3 -4 -5 -6 -7 -6 -5 -5 -4 -5 -5 -6 -4 -5 -5 -5 -3 -2 -2 -3 -1 -0 -3 -3 -3 -4 -4 -5 -5 -5 -5 -6 -6 -7 -7 -9
-7 -7 -6 -5 -5 -5 -6 -6 -7 -6 -6 -6 -7 -9 -10 -10 -7 -6 -7 -6 -5 -6 -6 -5 -4 -5 -4 -6 -5 -4 -6 -6 -6 -6 -4 -4 -2 -3 -0 -2 -3 -3 -4 -5 -5 -5 -5 -5 -6 -6 -7 -7 -8 -10
-7 -7 -7 -6 -6 -6 -6 -6 -7 -8 -9 -9 -9 -11 -12 -4 -5 -5 -10 -13 -9 -5 -4 -5 -3 -2 -3 -6 -5 -5 -6 -4 -6 -4 -5 -4 -3 -1 1 -2 -4 -4 -5 -5 -5 -6 -6 -6 -6 -7 -7 -8 -9 -11
-9 -7 -6 -6 -6 -6 -6 -6 -6 -7 -9 -11 -11 -10 -5 -2 -11 -10 -5 -9 -3 -3 -5 -4 -5 -3 -6 -5 -5 -5 -6 -5 -3 -4 -4 -3 -2 -3 -3 -3 -4 -5 -5 -5 -6 -6 -6 -6 -7 -7 -8 -9 -10 -12
-7 -9 -10 -8 -7 -6 -6 -6 -6 -8 -9 -3 -1 -2 -4 -8 -3 -3 -1 -3 -5 -4 -5 -4 -4 -2 -4 -3 -2 -4 -4 -5 -5 -2 -3 -3 -2 -2 -3 -4 -4 -5 -5 -6 -6 -6 -6 -6 -7 -8 -8 -9 -12 -14
-7 -7 -9 -10 -11 -10 -7 -6 -8 -10 -6 -3 -5 -2 -3 -3 -3 -2 -3 -4 -6 -3 -4 -3 -5 -5 -2 -2 -3 -3 -4 -2 -0 -2 -2 -2 -1 -3 -4 -4 -5 -5 -5 -5 -6 -6 -6 -7 -7 -8 -8 -10 -12 -13
-8 -6 -6 -7 -7 -6 -6 -7 -7 -7 -5 -4 -3 -4 -4 -4 -1 -2 -1 -2 -2 -3 -2 -3 -0 -3 -3 -3 -3 -4 -1 -1 -3 -1 -2 0 -3 -4 -4 -5 -5 -5 -6 -6 -6 -6 -7 -7 -7 -8 -9 -10 -12 -16
-7 -6 -6 -6 -7 -7 -6 -6 -7 -7 -2 -2 -3 -2 -2 -2 -3 -2 -0 -0 -2 -2 -2 -2 -2 -2 -2 -2 -1 -1 -2 -3 -1 -1 -1 -0 -3 -3 -3 -4 -5 -6 -6 -6 -6 -7 -7 -8 -8 -8 -9 -11 -17 -20
-9 -9 -7 -7 -6 -6 -6 -7 -7 -7 -1 -2 -4 -2 -1 -1 -2 -2 -2 -1 -1 -1 -2 -3 -3 -4 -2 -1 -3 -3 -1 -1 -3 -1 -0 -2 -3 -3 -4 -4 -5 -6 -7 -7 -8 -8 -8 -9 -9 -9 -11 -15 -18 -22
-8 -10 -9 -10 -8 -6 -7 -8 -8 -4 -2 -3 -2 -1 -1 -1 -1 -1 -1 -1 -1 -2 -3 -3 -2 -2 -2 -2 -2 -2 -3 -3 0 -1 -2 -3 -4 -4 -4 -4 -5 -7 -7 -7 -8 -9 -9 -10 -10 -11 -12 -16 -22 -24
-7 -5 -8 -10 -11 -8 -9 -9 -7 -4 -3 -3 -2 -2 -1 -1 -1 -2 -1 -2 -0 -2 0 -4 -1 -2 -3 -2 -2 -4 -0 -0 -2 -2 -3 -4 -4 -4 -4 -5 -5 -6 -7 -6 -7 -8 -9 -10 -10 -12 -17 -22 -23 -25
-5 -9 -10 -10 -11 -10 -10 -7 -3 -4 -3 -2 -1 -2 -2 -2 -2 -1 -1 -1 -3 -3 -3 -3 -4 -3 -1 -2 -1 0 -1 -3 -3 -4 -4 -4 -5 -5 -5 -5 -5 -5 -6 -6 -6 -7 -9 -10 -11 -16 -20 -22 -23 -26
-9 -11 -11 -12 -13 -10 -7 -5 -4 -4 -3 -2 -2 -2 -2 -2 -2 -1 -1 -2 -2 -3 -2 -3 -1 -3 -1 -1 -0 -2 -2 -2 -3 -4 -5 -5 -5 -5 -5 -5 -5 -5 -6 -6 -6 -8 -9 -10 -13 -16 -20 -21 -18 -18
-11 -11 -13 -16 -13 -8 -6 -5 -5 -5 -4 -3 -3 -3 -3 -3 -3 -4 -2 -3 -4 -4 -4 -3 -1 -1 -1 -0 -0 -0 -2 -3 -3 -3 -4 -6 -6 -6 -6 -6 -6 -6 -7 -8 -8 -9 -10 -13 -14 -14 -16 -15 -12 -11
-10 -11 -13 -9 -5 -6 -6 -6 -6 -5 -5 -4 -4 -4 -4 -3 -3 -2 -3 -4 -4 -4 -4 -2 -1 -4 -4 -4 -3 -2 -4 -2 -2 -2 -3 -5 -6 -6 -7 -7 -7 -8 -8 -9 -9 -10 -12 -12 -13 -13 -13 -11 -10 -10
-9 -11 -11 -12 -7 -6 -6 -5 -5 -5 -4 -5 -5 -5 -5 -4 -4 -3 -4 -4 -4 -3 -2 -2 -2 -2 -4 -4 -3 -4 -4 -5 -5 -5 -6 -5 -6 -6 -6 -7 -8 -8 -8 -8 -9 -9 -10 -11 -12 -10 -11 -10 -11 -11
-10 -10 -9 -8 -8 -6 -6 -5 -6 -7 -5 -5 -6 -6 -5 -5 -5 -5 -4 -4 -3 -2 -3 -4 -4 -5 -4 -5 -5 -4 -5 -5 -5 -5 -6 -5 -5 -6 -6 -7 -7 -7 -7 -8 -8 -9 -9 -10 -10 -10 -10 -11 -12 -12
-10 -10 -10 -6 -7 -5 -5 -6 -7 -7 -7 -7 -6 -5 -5 -5 -5 -5 -4 -5 -2 -4 -4 -6 -4 -4 -5 -5 -3 -4 -5 -5 -5 -5 -6 -5 -6 -7 -7 -8 -8 -8 -8 -8 -8 -9 -9 -10 -11 -11 -11 -12 -12 -12
-7 -8 -6 -7 -7 -6 -6 -6 -6 -7 -5 -6 -5 -5 -5 -5 -4 -4 -4 -3 -4 -4 -5 -6 -4 -4 -4 -4 -4 -5 -6 -5 -5 -5 -6 -6 -6 -8 -8 -8 -8 -8 -9 -9 -10 -10 -10 -10 -11 -11 -11 -12 -12 -13
-8 -7 -6 -7 -7 -7 -7 -6 -6 -6 -6 -5 -5 -6 -5 -5 -4 -5 -7 -4 -4 -5 -5 -5 -5 -5 -5 -4 -4 -6 -6 -6 -6 -6 -7 -7 -8 -8 -8 -9 -9 -10 -9 -9 -10 -10 -11 -11 -11 -11 -12 -12 -13 -13
-8 -6 -7 -7 -6 -7 -6 -6 -6 -6 -5 -5 -5 -5 -5 -5 -4 -5 -4 -6 -5 -6 -7 -6 -6 -5 -5 -6 -5 -6 -7 -7 -7 -7 -8 -8 -9 -9 -8 -8 -9 -9 -10 -10 -10 -11 -11 -11 -11 -12 -12 -12 -13 -14
-7 -6 -6 -6 -6 -6 -6 -6 -6 -5 -5 -6 -5 -5 -4 -5 -3 -4 -5 -8 -8 -8 -7 -6 -6 -6 -6 -6 -7 -7 -7 -7 -7 -7 -8 -10 -10 -10 -9 -9 -10 -10 -10 -11 -11 -11 -11 -11 -11 -12 -12 -13 -14 -17
-6 -6 -5 -6 -6 -6 -6 -6 -5 -6 -5 -4 -4 -5 -4 -5 -8 -8 -8 -8 -8 -8 -7 -7 -6 -7 -7 -7 -7 -7 -7 -7 -8 -9 -8 -9 -10 -10 -11 -11 -11 -11 -11 -11 -11 -11 -11 -11 -12 -12 -13 -14 -19 -27
-6 -5 -7 -6 -6 -6 -5 -5 -4 -5 -6 -6 -6 -6 -6 -6 -7 -7 -7 -7 -8 -8 -7 -7 -8 -8 -8 -8 -7 -7 -8 -8 -9 -9 -9 -9 -10 -10 -11 -11 -11 -11 -11 -11 -11 -11 -11 -12 -12 -13 -17 -25 -28 -28
-6 -6 -6 -6 -7 -5 -6 -8 -8 -7 -7 -6 -6 -6 -5 -6 -6 -7 -7 -7 -7 -8 -8 -8 -8 -8 -9 -8 -9 -8 -8 -8 -9 -9 -9 -9 -10 -10 -10 -10 -11 -11 -11 -11 -11 -12 -13 -15 -18 -25 -28 -28 -27 -25
-6 -6 -6 -6 -6 -7 -9 -7 -6 -6 -6 -7 -6 -8 -8 -8 -6 -8 -9 -9 -9 -9 -9 -9 -9 -9 -9 -9 -9 -9 -9 -9 -9 -9 -9 -9 -10 -10 -10 -11 -11 -12 -13 -16 -18 -20 -23 -28 -29 -29 -28 -25 -27 -30
-7 -7 -7 -7 -7 -7 -7 -7 -7 -7 -8 -8 -7 -8 -8 -8 -7 -11 -11 -10 -10 -10 -11 -11 -10 -10 -9 -9 -9 -9 -9 -9 -9 -9 -9 -10 -10 -10 -11 -11 -15 -19 -24 -27 -30 -29 -28 -29 -28 -25 -26 -30 -31 -31

GFSWCAN_850_dewp_123.txt.gz
Dewpoint
-1 -1 -0 -0 -0 -1 -1 -1 -2 -2 -2 -2 -4 -4 -6 -6 -5 -4 -2 -0 2 1 1 -0 1 -2 0 -2 -2 -1 -1 -1 -1 1 0 -0 1 0 3 2 1 1 1 1 1 3 3 -3 -4 -1 -2 -2 -3 -4
-0 -0 -1 -1 -0 0 1 -1 -1 -1 -1 -2 -4 -5 -6 -6 -5 -4 -2 -1 1 2 1 1 1 -1 -1 -3 -2 -2 -2 -2 -2 -1 -1 -1 2 2 2 4 -1 1 -0 0 1 -0 -3 -2 -2 -2 -3 -3 -3 -4
-0 1 2 2 3 1 1 -1 -1 -1 -1 -2 -3 -6 -7 -7 -6 -5 -3 -0 1 1 -0 -0 -0 -1 -1 -2 -3 -2 -2 -4 -3 -4 -0 1 2 1 3 1 0 -1 -2 -1 -2 -3 -3 -3 -3 -3 -3 -3 -3 -4
-0 0 1 2 1 0 -1 -1 -1 -1 -2 -2 -3 -6 -6 -7 -7 -5 -3 1 1 -0 0 0 -0 0 -1 -2 -1 -3 -3 -4 -4 -3 -0 1 2 -0 1 0 1 -1 -2 -2 -2 -4 -4 -4 -3 -3 -3 -3 -4 -5
-1 -0 -1 -1 -1 -1 -0 -0 -1 -1 -1 -2 -4 -5 -6 -6 -6 -5 -5 1 1 -1 0 0 -0 -0 -0 -0 -1 -2 -3 -4 -1 -1 -0 -0 -1 -1 -1 -2 -1 -2 -3 -2 -3 -4 -5 -4 -3 -4 -4 -5 -5 -6
-0 -0 0 -1 -1 -0 -0 -0 -1 -1 -1 -2 -4 -4 -5 -4 -3 -2 1 1 -1 -2 -2 -1 -0 -1 0 -1 -2 -3 -4 -3 -2 -1 -1 -1 -2 -2 -1 -1 -1 -1 -1 -2 -2 -3 -3 -3 -4 -4 -5 -5 -6 -7
-1 -1 -0 -0 -1 -0 -0 -0 -1 -0 -1 -2 -3 -3 -2 -3 -2 0 -0 0 -0 -3 -3 -0 -0 -1 -2 -2 -2 -2 -2 -2 -2 -2 -2 -1 -2 -3 -1 -2 -1 -2 -3 -3 -3 -4 -4 -4 -4 -5 -5 -5 -6 -7
-1 -1 -1 -0 -0 -1 -2 -1 -1 -1 -1 -3 -2 -2 -1 -1 -0 -0 -1 -3 -4 -5 -4 -1 -1 -3 -4 -4 -4 -4 -5 -4 -5 -3 -3 -1 -2 -3 -4 -2 -3 -3 -3 -3 -3 -5 -5 -4 -5 -5 -5 -6 -7 -8
-2 -1 -1 -1 -1 -0 0 -0 0 -0 -0 0 -0 -0 -1 -1 -1 -2 -3 -4 -3 -4 -3 -2 -1 -1 -5 -5 -6 -5 -7 -2 -6 -3 -2 -2 -2 -2 -3 -2 -3 -4 -3 -4 -4 -5 -5 -5 -5 -5 -5 -7 -9 -11
-4 -2 -1 -1 -1 -1 -1 -1 -0 -0 -0 -1 -1 -2 -1 -1 -2 -2 -2 -4 -6 -4 -6 -2 -4 -1 -4 -5 -3 -4 -5 -2 -2 -3 -4 -3 -2 -1 -1 -2 -3 -4 -4 -5 -5 -4 -4 -4 -5 -5 -5 -8 -11 -13
-6 -6 -5 -3 -1 -1 -1 -1 -1 -1 -1 -5 -6 -4 -3 -3 -6 -8 -3 -2 -3 -2 -1 -4 -3 -1 -4 -2 -2 -5 -3 -3 -2 -2 -2 -2 -2 -3 -2 -3 -4 -4 -5 -5 -5 -5 -5 -5 -5 -5 -5 -6 -9 -11
-6 -7 -8 -8 -7 -7 -5 -4 -5 -6 -9 -7 -4 -3 -4 -3 -3 -2 -2 -2 -3 -2 -2 -2 -3 -3 -3 -4 -3 -3 -3 -3 -2 -2 -3 -3 -1 -3 -3 -4 -4 -5 -5 -5 -5 -5 -5 -5 -5 -5 -5 -6 -8 -11
-7 -7 -8 -9 -10 -10 -9 -9 -9 -10 -8 -8 -9 -4 -4 -3 -3 -3 -3 -0 -1 -1 -3 -3 -2 -2 -2 -4 -2 -3 -4 -3 -2 -5 -3 -1 -3 -4 -4 -5 -5 -5 -5 -5 -5 -5 -4 -4 -5 -5 -5 -6 -8 -9
-7 -7 -7 -8 -6 -5 -5 -5 -6 -10 -9 -4 -4 -4 -3 -2 -2 0 -1 -2 -2 -2 -2 -3 -2 -2 -2 -2 -3 -5 -2 -3 -3 -3 -0 -1 -4 -4 -4 -5 -5 -5 -5 -5 -5 -4 -4 -4 -5 -5 -6 -6 -7 -8
-8 -7 -7 -8 -8 -9 -9 -11 -12 -11 -4 -3 -3 -2 -2 -2 -1 -0 0 -1 -2 -2 -3 -2 -2 -2 -3 -3 -3 -4 -3 -4 -3 -1 -1 -1 -3 -4 -4 -5 -5 -4 -4 -5 -5 -5 -5 -5 -5 -6 -6 -7 -7 -9
-9 -9 -9 -9 -10 -11 -11 -11 -10 -5 -3 -3 -2 -2 -2 -1 -0 0 -0 -1 -2 -3 -4 -4 -2 -4 -3 -3 -2 -4 -2 -1 -0 -2 -3 -3 -3 -4 -4 -4 -4 -4 -5 -5 -5 -5 -5 -6 -6 -6 -7 -7 -8 -12
-11 -10 -10 -8 -10 -11 -12 -12 -5 -3 -3 -2 -1 -1 -1 -1 -1 -0 -1 -1 -2 -3 -3 -2 -3 -2 -3 -3 -2 -2 -2 -2 -3 -4 -4 -4 -4 -4 -4 -4 -4 -5 -6 -6 -6 -6 -6 -6 -7 -7 -7 -8 -11 -16
-13 -13 -10 -11 -9 -9 -10 -5 -4 -4 -2 -2 -2 -2 -2 -2 -1 -1 -2 -3 -3 -3 -3 -3 -4 -3 -4 -2 -2 -2 -3 -4 -4 -4 -5 -4 -4 -3 -4 -5 -4 -5 -7 -8 -7 -8 -8 -8 -8 -9 -9 -12 -17 -21
-13 -13 -13 -11 -11 -8 -5 -5 -4 -2 -2 -2 -1 -2 -3 -3 -3 -2 -3 -3 -3 -3 -3 -3 -2 -2 -1 -1 -2 -3 -4 -4 -4 -5 -5 -5 -4 -4 -4 -5 -5 -5 -6 -6 -6 -7 -9 -9 -10 -10 -12 -15 -19 -23
-14 -13 -13 -13 -11 -6 -5 -5 -5 -3 -2 -2 -3 -4 -4 -4 -2 -3 -4 -4 -4 -3 -2 -1 -1 -1 -1 -2 -3 -3 -4 -4 -4 -5 -6 -5 -5 -5 -5 -5 -5 -5 -6 -6 -6 -7 -7 -9 -10 -11 -12 -16 -22 -23
-17 -14 -12 -10 -8 -6 -4 -5 -5 -5 -5 -3 -4 -4 -3 -4 -4 -3 -5 -4 -3 -1 -2 -1 -1 -2 -2 -2 -3 -3 -3 -4 -3 -4 -4 -6 -5 -6 -6 -6 -6 -6 -6 -6 -7 -7 -7 -8 -9 -11 -14 -19 -19 -20
-13 -13 -13 -13 -7 -6 -5 -4 -5 -5 -4 -5 -6 -5 -3 -3 -3 -4 -4 -3 -2 -2 -2 -1 -3 -3 -3 -2 -2 -3 -3 -3 -3 -3 -4 -5 -6 -6 -6 -6 -7 -6 -6 -7 -7 -7 -7 -9 -10 -12 -15 -15 -13 -15
-17 -16 -11 -8 -7 -6 -6 -6 -6 -5 -4 -5 -5 -4 -4 -5 -5 -5 -4 -3 -2 -3 -3 -4 -3 -3 -4 -4 -4 -4 -4 -4 -5 -4 -5 -5 -5 -6 -6 -7 -7 -7 -7 -8 -8 -8 -9 -11 -12 -13 -13 -10 -10 -11
-14 -12 -8 -6 -6 -6 -7 -7 -7 -7 -6 -5 -5 -6 -6 -6 -5 -4 -2 -2 -3 -4 -4 -3 -3 -4 -3 -4 -5 -4 -4 -4 -5 -5 -5 -5 -6 -6 -6 -6 -7 -7 -7 -7 -8 -9 -9 -10 -11 -12 -12 -10 -10 -10
-12 -8 -7 -9 -7 -7 -8 -7 -7 -6 -6 -6 -6 -5 -5 -5 -5 -5 -4 -3 -4 -5 -4 -4 -4 -4 -4 -5 -5 -5 -5 -5 -6 -6 -6 -6 -6 -6 -7 -7 -7 -7 -7 -7 -8 -8 -9 -9 -10 -10 -10 -10 -10 -11
-8 -7 -7 -7 -8 -8 -7 -8 -8 -7 -7 -7 -5 -5 -5 -6 -7 -4 -4 -4 -5 -5 -6 -5 -5 -5 -5 -5 -6 -6 -6 -7 -6 -7 -7 -7 -7 -7 -7 -8 -8 -8 -7 -7 -8 -8 -9 -9 -10 -10 -10 -10 -11 -12
-9 -8 -7 -7 -7 -7 -7 -6 -7 -7 -8 -8 -7 -8 -8 -8 -7 -4 -5 -6 -6 -6 -6 -6 -6 -5 -5 -6 -6 -6 -6 -7 -6 -7 -7 -7 -8 -8 -8 -8 -9 -9 -8 -8 -8 -9 -9 -10 -10 -10 -11 -11 -12 -12
-7 -5 -8 -7 -7 -6 -8 -8 -8 -8 -7 -6 -7 -9 -8 -6 -4 -5 -6 -6 -6 -6 -6 -6 -6 -6 -6 -6 -7 -7 -7 -7 -7 -7 -7 -8 -8 -8 -9 -9 -9 -9 -9 -9 -9 -9 -9 -10 -10 -11 -11 -11 -12 -13
-6 -6 -7 -7 -7 -7 -6 -6 -5 -4 -4 -4 -7 -5 -3 -5 -5 -6 -6 -7 -7 -6 -7 -7 -6 -6 -6 -6 -7 -7 -7 -8 -8 -9 -9 -9 -10 -9 -9 -9 -9 -10 -9 -9 -9 -10 -10 -10 -11 -11 -11 -12 -12 -13
-5 -6 -6 -7 -9 -7 -5 -5 -5 -6 -5 -5 -5 -5 -5 -6 -6 -7 -6 -7 -7 -7 -7 -7 -7 -7 -7 -8 -8 -8 -9 -8 -8 -8 -8 -9 -10 -10 -10 -10 -10 -10 -10 -10 -11 -11 -11 -11 -11 -12 -12 -13 -13 -14
-7 -7 -7 -6 -6 -5 -6 -6 -7 -7 -6 -6 -6 -5 -5 -6 -7 -7 -7 -7 -8 -8 -8 -8 -8 -8 -8 -8 -8 -9 -9 -9 -9 -9 -9 -8 -9 -10 -11 -11 -11 -11 -11 -11 -11 -11 -11 -12 -12 -12 -13 -14 -20 -27
-7 -7 -5 -5 -4 -6 -6 -7 -7 -7 -6 -6 -6 -7 -7 -7 -7 -9 -9 -9 -9 -9 -9 -9 -8 -8 -8 -8 -8 -8 -9 -9 -9 -9 -9 -9 -10 -10 -11 -11 -11 -11 -11 -11 -12 -12 -12 -12 -13 -14 -22 -28 -28 -26
-7 -7 -7 -7 -7 -7 -7 -8 -7 -6 -5 -8 -7 -7 -7 -8 -10 -11 -11 -11 -10 -10 -10 -10 -10 -10 -9 -9 -9 -9 -9 -9 -9 -9 -10 -10 -10 -11 -11 -11 -11 -11 -12 -12 -12 -13 -16 -20 -27 -29 -28 -26 -28 -31